Location: Montreal
(45.5000°N, 73.5833°W)
Time: 18:59:34
(UTC-04:00)

Tiangong 2 - Pass Details

Date: 15 October 2017
Orbit: 388 x 391 km, 42.8° (Epoch: 22 October)

Event Time Altitude Azimuth Distance (km) Brightness Sun altitude
Exits shadow 05:35:48 47° 215° (SW) 529 1.4 -17.4°
Maximum altitude 05:36:14 51° 183° (S) 495 1.5 -17.3°
Drops below altitude 10° 05:39:22 10° 106° (ESE) 1,421 5.0 -16.8°
Sets 05:41:28 0° 101° (E) 2,276 6.5 -16.4°
